Lid_Strength_Index
11 13 15 13 14 16 15 16 16 15 13 13 14 14 12 11 12 12 12 12 12 12 10 10 9 9 9 6 4 2 2 1 2 2 2 1 1 2 1 1 1 3 3 4
13 15 12 12 13 14 15 16 17 14 13 14 15 14 13 13 12 12 12 12 12 12 11 11 10 11 10 9 6 3 2 1 1 1 1 1 1 1 1 1 2 2 3 3
14 13 11 12 14 14 16 16 16 15 15 15 16 16 16 14 13 12 11 11 12 11 11 11 11 11 11 11 10 6 2 1 1 1 2 6 4 5 3 2 2 2 2 3
13 12 12 13 14 14 16 13 14 15 16 18 16 20 17 15 14 13 12 13 13 12 12 11 11 11 11 10 10 7 4 2 1 2 2 2 2 3 2 2 2 2 2 2
14 13 13 14 13 13 14 13 14 15 17 18 18 19 18 17 15 13 13 12 12 12 12 10 10 10 9 9 10 8 4 2 2 2 2 2 3 4 6 6 4 5 4 2
14 12 12 12 13 13 12 14 15 16 17 20 18 18 19 17 15 15 13 12 12 11 11 11 10 10 10 9 9 7 5 4 4 4 4 4 4 7 8 8 6 5 5 5
14 14 12 12 13 13 14 16 19 21 21 21 19 19 18 15 15 15 13 12 11 11 11 10 10 11 10 10 9 9 7 6 4 4 5 5 5 7 7 7 8 8 7 7
17 17 13 12 13 14 15 15 19 23 22 21 17 19 16 14 13 12 11 12 11 11 11 11 10 10 10 10 10 9 8 8 7 6 6 6 6 6 7 7 8 8 6 4
16 17 13 13 12 11 14 17 15 18 25 22 19 17 14 13 12 12 12 11 11 11 11 10 10 10 10 10 9 9 9 8 8 8 7 6 6 7 7 7 8 7 8 8
14 17 13 13 12 12 13 13 16 18 24 25 20 20 18 15 13 13 12 12 11 11 10 10 10 10 10 10 10 9 9 9 8 8 8 7 7 7 7 7 7 8 8 9
13 15 15 13 14 14 14 15 15 15 18 22 24 19 15 13 12 12 12 11 11 10 10 11 11 10 10 10 9 9 9 9 8 8 8 8 8 8 8 8 8 9 9 9
12 13 17 15 13 13 13 14 14 17 19 18 18 17 13 12 12 11 11 10 10 11 11 11 11 11 11 11 10 10 10 9 9 9 9 9 9 9 9 9 9 9 9 10
12 15 22 17 15 14 15 14 13 14 15 17 20 19 13 13 12 11 11 11 11 11 11 10 11 10 11 10 10 10 10 10 10 9 9 9 10 10 10 10 10 10 10 11
9 14 15 18 17 14 15 15 14 13 17 17 17 16 15 13 13 12 12 12 11 11 11 11 11 11 10 10 11 11 11 11 11 11 10 10 10 10 10 10 10 11 11 11
11 15 15 14 14 14 15 15 14 15 14 16 15 15 13 12 12 12 11 12 12 12 11 11 11 11 11 11 11 11 11 12 12 12 11 11 11 11 11 11 12 12 12 13
11 15 14 15 13 15 16 15 15 14 14 14 15 15 11 11 11 13 12 12 13 12 12 12 12 12 12 12 12 12 12 13 13 13 13 13 13 14 14 13 13 13 13 13
13 14 15 17 15 15 17 16 16 15 14 13 15 13 12 12 12 13 13 13 13 13 12 12 12 12 12 12 13 13 13 14 15 15 15 15 15 15 14 14 14 14 14 14
14 14 14 17 16 20 16 15 13 13 12 11 13 13 12 12 12 13 13 14 14 13 13 13 12 12 12 13 13 13 14 15 15 15 15 15 15 15 15 15 14 14 15 15
11 13 16 18 18 18 17 16 14 14 14 12 13 14 14 13 13 13 12 13 13 13 13 12 12 12 13 13 14 15 15 15 15 15 15 15 16 16 16 16 15 15 16 16
13 12 15 20 21 23 18 17 14 11 18 18 13 14 14 15 16 14 13 13 14 13 13 13 13 13 14 14 15 15 15 15 15 15 15 15 15 17 17 16 16 17 19 16
16 15 16 18 21 20 16 15 13 17 18 16 15 15 15 17 15 14 13 13 14 13 13 13 13 14 14 14 15 15 15 16 15 16 16 16 16 17 17 17 18 18 15 14
17 17 18 16 18 22 17 15 15 14 14 14 14 15 15 15 16 15 14 14 14 14 14 14 15 15 15 15 17 16 16 15 16 16 16 17 17 17 15 18 17 19 16 13
18 15 16 15 16 14 15 14 13 11 13 13 14 14 13 13 14 14 13 13 13 13 12 13 15 14 14 15 16 15 14 14 15 17 17 17 18 16 18 19 17 16 18 14
15 13 15 14 13 13 12 12 12 12 12 12 12 12 12 13 13 13 13 12 12 12 12 13 14 14 13 15 15 15 15 14 14 15 16 15 16 15 15 15 16 17 16 15
14 13 15 15 13 12 12 12 11 12 12 12 12 12 13 13 13 12 13 13 13 14 15 15 15 15 15 15 15 16 16 18 17 15 14 14 15 16 16 16 16 16 17 15
14 14 15 16 11 12 12 11 11 12 12 13 13 14 13 13 14 15 15 15 16 17 17 17 18 18 18 18 18 19 21 19 18 17 15 13 13 14 15 13 13 11 10 9